sat.trackr.live / text

‹ back to catalog

STPSAT-6

NORAD 49817 · 2021-118A

PAYLOAD ACTIVE UNKNOWN

§ Identity

Operator
Country
US
Launch date
2021-12-07
Launch site
AFETR
Launch vehicle
Mass (kg)
RCS (m²)

Purposes: comms

External: N2YO · Heavens-Above · Gunter

§ Orbital elements

Epoch: 2026-09-12T03:06:28.882944Z

Period
1,436.10 min
Inclination
0.5398°
Eccentricity
0.0001044
Mean motion
1.00271509 rev/d
Perigee alt
35,782.3 km
Apogee alt
35,791.1 km
Semi-major
42,164.8 km
B*
0.0000e+0
RAAN
84.2910°
Arg perigee
208.8928°
Mean anomaly
352.6593°
Rev number
1,744

§ Raw data

STPSAT-61 49817U 21118A   26255.12950096 -.00000059  00000+0  00000+0 0  99972 49817   0.5398  84.2910 0001044 208.8928 352.6593  1.00271509 17440

JSON: /api/v1/satellites/49817 · /tle

For live sub-satellite position, see the globe view (requires WebGL).

§ Visibility from observer

Set your observer location to see the next 7 days of passes ≥ 10°. The values pass through the URL so the page stays shareable.

No JS? Fill the form by hand. The geolocation button needs JavaScript.